Hourly Data Report for October 15, 2013

All times are specified in Local Standard Time (LST). Add 1 hour to adjust for Daylight Saving Time where and when it is observed.

OTTAWA INTL A
ONTARIO

45°19'00.000" N
75°40'00.000" W
114.90 m
6106001
71628
YOW

Download Data

Hourly Data (October 2013)
Hourly Data Report for October 15, 2013
Temp Definition
°C
Dew Point Temp Definition
°C
Rel Hum Definition
%
Wind Dir Definition
10's deg

Wind Spd Definition
km/h
Visibility Definition
km
Stn Press Definition
kPa
Hmdx Definition


Wind Chill Definition


Weather Definition


TIME
00:00 Legend Double Dagger 10.0 8.0 87 34 12 24.1 101.21     LegendNANA
01:00 Legend Double Dagger 9.6 7.2 85 35 14 24.1 101.19     Clear
02:00 Legend Double Dagger 9.0 6.8 86 1 13 24.1 101.15     LegendNANA
03:00 Legend Double Dagger 9.6 6.3 80 1 15 24.1 101.14     LegendNANA
04:00 Legend Double Dagger 9.4 6.3 81 1 9 24.1 101.16     Mostly Cloudy
05:00 Legend Double Dagger 8.8 5.9 82 2 6 24.1 101.15     LegendNANA
06:00 Legend Double Dagger 9.8 6.9 82 2 9 24.1 101.15     LegendNANA
07:00 Legend Double Dagger 8.5 6.6 88 11 5 24.1 101.16     Mostly Cloudy
08:00 Legend Double Dagger 10.6 8.4 86 11 4 24.1 101.17     LegendNANA
09:00 Legend Double Dagger 10.9 8.8 87 10 8 24.1 101.15     LegendNANA
10:00 Legend Double Dagger 11.4 10.0 91 9 10 16.1 101.08     Cloudy
11:00 Legend Double Dagger 11.8 10.4 91 9 8 12.9 101.02     LegendNANA
12:00 Legend Double Dagger 12.7 10.6 87 11 10 16.1 100.92     LegendNANA
13:00 Legend Double Dagger 13.9 10.7 81 10 4 24.1 100.86     Cloudy
14:00 Legend Double Dagger 14.7 10.2 74 10 10 24.1 100.76     LegendNANA
15:00 Legend Double Dagger 15.6 10.6 72 6 8 24.1 100.68     LegendNANA
16:00 Legend Double Dagger 15.5 8.8 64 23 1 24.1 100.62     Mostly Cloudy
17:00 Legend Double Dagger 14.1 9.4 73 9 7 24.1 100.55     LegendNANA
18:00 Legend Double Dagger 12.7 9.6 81 12 7 24.1 100.55     LegendNANA
19:00 Legend Double Dagger 12.9 8.8 76 12 9 24.1 100.52     Mostly Cloudy
20:00 Legend Double Dagger 12.9 9.4 79 10 14 24.1 100.43     LegendNANA
21:00 Legend Double Dagger 11.8 9.7 87 10 13 24.1 100.41     LegendNANA
22:00 Legend Double Dagger 11.7 10.0 89 10 17 24.1 100.33     Cloudy
23:00 Legend Double Dagger 11.6 10.2 91 9 13 11.3 100.29     LegendNANA

Notes on Data Quality.

Legend

  • E = Estimated
  • M = Missing
  • NA = Not Available
  • ‡ = Partner data that is not subject to review by the National Climate Archives
Date modified: